This demonstration page uses our WeatherBlox Daily Observations layout. Learn more.

Left ArrowRight Arrow

53.62937, 11.41316

Hourly Observations for October 26, 2021

Temp ( °F °C ) Dew Point ( °F °C ) Humidity (%) Winds ( mph kmh ) Pressure ( in mb ) Visibility ( mi km ) Precip ( " mm )
12:20 am 00:20 Mostly Cloudy 52 11 45 7 77 77 VRB 2 4 30.00 1016 30 48 N/A
12:50 am 00:50 Mostly Cloudy 52 11 45 7 77 77 VRB 2 4 30.00 1016 30 48 N/A
1:20 am 01:20 Cloudy 50 10 45 7 82 82 VRB 2 4 29.97 1015 30 48 N/A
1:50 am 01:50 Mostly Cloudy 50 10 45 7 82 82 VRB 3 6 30.00 1016 30 48 N/A
2:20 am 02:20 Mostly Cloudy 50 10 46 8 88 88 S 3 6 29.97 1015 30 48 N/A
2:50 am 02:50 Mostly Cloudy 50 10 46 8 88 88 S 3 6 29.97 1015 30 48 N/A
3:20 am 03:20 Cloudy 50 10 46 8 88 88 VRB 3 6 29.97 1015 30 48 N/A
3:50 am 03:50 Mostly Cloudy 50 10 48 9 94 94 VRB 3 6 29.97 1015 6 9 N/A
4:20 am 04:20 Mostly Cloudy 50 10 48 9 94 94 SSW 3 6 29.97 1015 30 48 N/A
4:50 am 04:50 Mostly Cloudy 50 10 48 9 94 94 VRB 3 6 29.97 1015 6 9 N/A
5:20 am 05:20 Cloudy 50 10 48 9 94 94 VRB 3 6 29.97 1015 6 9 N/A
5:50 am 05:50 Cloudy 50 10 48 9 94 94 SSW 5 7 29.97 1015 30 48 N/A
6:20 am 06:20 Mostly Cloudy 50 10 48 9 94 94 S 3 6 29.97 1015 30 48 N/A
6:50 am 06:50 Mostly Cloudy 50 10 48 9 94 94 S 3 6 29.97 1015 6 9 N/A
7:20 am 07:20 Mostly Cloudy 50 10 48 9 94 94 VRB 3 6 30.00 1016 4 7 N/A
7:50 am 07:50 Mostly Cloudy 50 10 48 9 94 94 VRB 5 7 30.00 1016 5 8 N/A
8:20 am 08:20 Mostly Cloudy 50 10 48 9 94 94 VRB 5 7 30.00 1016 6 9 N/A
8:50 am 08:50 Mostly Cloudy 50 10 48 9 94 94 VRB 3 6 30.00 1016 5 8 N/A
9:20 am 09:20 Mostly Cloudy 52 11 48 9 88 88 VRB 3 6 30.03 1017 6 9 N/A
9:50 am 09:50 Mostly Cloudy 52 11 50 10 94 94 VRB 3 6 30.03 1017 30 48 N/A
10:20 am 10:20 Mostly Cloudy 52 11 50 10 94 94 VRB 5 7 30.03 1017 30 48 N/A
10:50 am 10:50 Mostly Cloudy 54 12 50 10 88 88 WSW 6 9 30.03 1017 30 48 N/A
11:20 am 11:20 Mostly Cloudy 54 12 50 10 88 88 WSW 9 15 30.03 1017 30 48 N/A
11:50 am 11:50 Mostly Cloudy 54 12 48 9 82 82 WSW 7 11 30.03 1017 30 48 N/A
12:20 pm 12:20 Mostly Cloudy 55 13 48 9 77 77 WSW 8 13 30.03 1017 30 48 N/A
12:50 pm 12:50 Mostly Cloudy 55 13 48 9 77 77 VRB 7 11 30.03 1017 30 48 N/A
1:20 pm 13:20 Partly Cloudy 55 13 48 9 77 77 WSW 7 11 30.03 1017 30 48 N/A
1:50 pm 13:50 Partly Cloudy 55 13 46 8 72 72 WSW 8 13 30.03 1017 30 48 N/A
2:20 pm 14:20 Partly Cloudy 57 14 48 9 72 72 WSW 10 17 30.03 1017 30 48 N/A
2:50 pm 14:50 Partly Cloudy 57 14 48 9 72 72 WSW 7 11 30.03 1017 30 48 N/A
3:20 pm 15:20 Partly Cloudy 55 13 48 9 77 77 WSW 7 11 30.03 1017 30 48 N/A
3:50 pm 15:50 Partly Cloudy 55 13 48 9 77 77 VRB 5 7 30.03 1017 30 48 N/A
4:20 pm 16:20 Mostly Sunny 55 13 48 9 77 77 VRB 5 7 30.03 1017 30 48 N/A
4:50 pm 16:50 Partly Cloudy 55 13 48 9 77 77 VRB 3 6 30.03 1017 30 48 N/A
5:20 pm 17:20 Mostly Cloudy 55 13 48 9 77 77 VRB 2 4 30.03 1017 30 48 N/A
5:50 pm 17:50 Mostly Sunny 54 12 48 9 82 82 VRB 3 6 30.03 1017 30 48 N/A
6:20 pm 18:20 Mostly Cloudy 52 11 50 10 94 94 VRB 2 4 30.06 1018 30 48 N/A
6:50 pm 18:50 Mostly Cloudy 52 11 50 10 94 94 S 5 7 30.06 1018 30 48 N/A
7:20 pm 19:20 Mostly Cloudy 52 11 48 9 88 88 S 6 9 30.06 1018 30 48 N/A
7:50 pm 19:50 Mostly Clear 52 11 48 9 88 88 S 5 7 30.06 1018 30 48 N/A
8:20 pm 20:20 Mostly Clear 54 12 48 9 82 82 VRB 3 6 30.06 1018 7 11 N/A
8:50 pm 20:50 Mostly Cloudy with Light Rain 54 12 48 9 82 82 VRB 6 9 30.06 1018 30 48 N/A
9:20 pm 21:20 Mostly Cloudy 52 11 50 10 94 94 VRB 3 6 30.06 1018 30 48 N/A
9:50 pm 21:50 Mostly Cloudy 52 11 50 10 94 94 VRB 5 7 30.06 1018 30 48 N/A
10:20 pm 22:20 Mostly Cloudy 52 11 50 10 94 94 VRB 5 7 30.06 1018 30 48 N/A
10:50 pm 22:50 Mostly Cloudy 52 11 50 10 94 94 VRB 6 9 30.06 1018 30 48 N/A
11:20 pm 23:20 Mostly Cloudy 52 11 50 10 94 94 VRB 5 7 30.06 1018 30 48 N/A
11:50 pm 23:50 Mostly Cloudy 54 12 50 10 88 88 VRB 3 6 30.06 1018 30 48 N/A

Powered by AerisWeather